Regional Weather Roundup
Issued by NWS

Home | Current Version | Previous Version | Text Only | Print | Product List | Glossary On
Versions: 1 2 3 4 5 6 7 8 9 10 11 12 13 14 15 16 17 18 19 20 21 22 23 24 25 26 27 28 29 30 31 32 33 34 35 36 37 38 39 40 41 42 43 44 45 46 47 48 49 50
000
ASUS44 KFWD 300115
RWRTX
NORTH TEXAS HOURLY WEATHER ROUNDUP
NATIONAL WEATHER SERVICE FORT WORTH TX
800 PM CDT MON AUG 29 2016

NOTE: "FAIR" INDICATES FEW OR NO CLOUDS BELOW 12,000 FEET WITH NO
SIGNIFICANT WEATHER AND/OR OBSTRUCTIONS TO VISIBILITY.

TXZ118-119-300200-
DALLAS/FORT WORTH METROPLEX

CITY           SKY/WX    TMP DP  RH WIND       PRES   REMARKS
DFW AIRPORT    MOCLDY    82  73  74 CALM      30.00R
DALLAS LOVE    MOCLDY    84  73  69 CALM      30.00R HX  90
FTW MEACHAM    CLOUDY    80  74  81 CALM      30.01R
DAL-EXECUTIVE  PTCLDY    80  76  87 CALM      30.00R
FTW-ALLIANCE   CLOUDY    78  75  90 CALM      30.01R
FTW-NAS-JRB    PTCLDY    79  74  84 NW3       30.01R
FTW-SPINKS     CLOUDY    78  72  81 N5        30.04R
ARLINGTON      PTCLDY    80  73  79 CALM      30.01R
GRAND PRAIRIE  CLEAR     81  72  74 CALM      30.02R
ADDISON        MOCLDY    84  75  74 CALM      30.01R HX  92
MESQUITE       CLEAR     82  70  65 E5        30.01R
LANCASTER      CLOUDY    83  73  70 CALM      30.01R
$$

TXZ091>094-102>105-117-120-121-131>134-300200-
NORTH CENTRAL TEXAS

CITY           SKY/WX    TMP DP  RH WIND       PRES   REMARKS
SHRMAN/DENISON PTCLDY    85  71  61 E3        30.04R HX  90
GAINESVILLE      N/A     83  72  69 CALM      30.05R
BOWIE          PTCLDY    81  71  72 CALM      30.05R
BRIDGEPORT     CLOUDY    78  73  82 CALM      30.05R
DECATUR        CLOUDY    81  71  71 CALM      30.04R
DENTON         PTCLDY    81  77  88 CALM      30.01R
MCKINNEY       PTCLDY    80  72  76 E6        30.01R
GREENVILLE     PTCLDY    79  72  78 CALM      30.02R
ROCKWALL       CLEAR     85  71  62 E10G22    30.00R HX  90
TERRELL        CLOUDY    83  72  69 E5        30.01R
WAXAHACHIE     MOCLDY    79  75  89 NE3       30.02R
CLEBURNE       PTCLDY    79  77  94 NE5       30.04R
GRANBURY       MOCLDY    83  69  64 CALM      30.03S
$$

TXZ083>090-098>101-113>116-127>130-139>142-154-155-300200-
WESTERN NORTH TEXAS

CITY           SKY/WX    TMP DP  RH WIND       PRES   REMARKS
WICHITA FALLS  CLEAR     87  63  44 SE8       30.02R
WF-KICKAPOO    PTCLDY    85  67  54 S9G17     30.04R
VERNON         CLEAR     87  57  36 E7        30.05R
ABILENE        CLOUDY    77  70  79 E6        30.08R
ABILENE-DYESS  CLOUDY    84  67  57 E15       30.05R
CISCO          CLOUDY    75  72  88 E6        30.08R
BRECKENRIDGE   MOCLDY    81  67  61 E6        30.05R
GRAHAM         MOCLDY    80  71  71 CALM      30.03S
MINERAL WELLS  PTCLDY    81  70  69 NE3       30.02R
STEPHENVILLE   MOCLDY    81  69  68 E3        30.07R
COMANCHE       CLEAR     81  69  68 E7        30.04R
BROWNWOOD      PTCLDY    81  68  65 E8        30.04R
COLEMAN        PTCLDY    81  66  61 NE10      30.05R
$$

TXZ143>147-156>162-174-175-300200-
CENTRAL TEXAS

CITY           SKY/WX    TMP DP  RH WIND       PRES   REMARKS
WACO           CLOUDY    77  74  90 CALM      30.00R
WACO-MCGREGOR  PTCLDY    76  73  91 NE5       30.01R
HILLSBORO      CLOUDY    78  70  76 CALM      30.01R
CORSICANA      CLOUDY    79  73  82 CALM      30.01R
MEXIA          CLOUDY    74  74  97 W5        30.00R
HEARNE         CLOUDY    78  74  87 CALM      29.99R
CAMERON        CLOUDY    77  74  92 CALM      29.99R
TEMPLE         CLOUDY    78  72  81 E7        30.01R
KILLEEN        CLOUDY    74  72  95 E5        30.01R
KILLEEN-SKYLRK CLOUDY    76  72  87 CALM      30.02R
FORT HOOD      CLOUDY    75  69  80 SE3       30.00R
GATESVILLE     DRIZZLE   73  73 100 NE3       30.04R
HAMILTON       CLOUDY    78  72  80 SE16      30.05R
LAMPASAS       RAIN      73  72  95 E8        30.03R
$$

TXZ095>097-106>112-122>126-135>138-148>153-164>167-300200-
EAST TEXAS

CITY           SKY/WX    TMP DP  RH WIND       PRES   REMARKS
PARIS          MOCLDY    82  70  65 E8        30.02S
SULPHUR SPRNGS PTCLDY    81  71  70 SE5       30.04R
MOUNT PLEASANT MOCLDY    81  73  76 CALM      30.02S
GILMER         MOCLDY    80  76  86 CALM      30.01R
TYLER          CLOUDY    81  68  64 SE9       30.01S
LONGVIEW       LGT RAIN  75  74  96 CALM      29.99S
MARSHALL       CLOUDY    73  70  91 CALM      30.02S
ATHENS         CLOUDY    77  73  88 CALM      29.99S
PALESTINE      CLOUDY    78  76  94 CALM      30.01R
JACKSONVILLE   TSTM      73  72  98 SE7       30.04F
HENDERSON      CLOUDY    73  72  96 SE9       30.04R
CENTER         LGT RAIN  74  73  95 CALM      30.02S
NACOGDOCHES    CLOUDY   N/A N/A N/A NE5       30.01R
LUFKIN         MOCLDY    72  70  93 N6        30.00R
$$

SUPPLEMENTAL OBSERVATIONS (CENTRAL)

CITY           SKY/WX    TMP DP  RH WIND       PRES   REMARKS
DENISON DAM      N/A     84  68  58 E2          N/A
CADDO GRASSLND   N/A     82  70  65 SE2G17      N/A
PAT MAYSE LAKE   N/A     84  72  65 E5          N/A
GREENVILLE       N/A     82  72  69 E5          N/A
CEDAR HILL       N/A     79  73  83 N1          N/A
ATHENS           N/A     77  72  83 E21G29      N/A
MCGREGOR         N/A     73  72  94 NE3         N/A
TEMPLE           N/A     75  70  83 NE5G14      N/A
$$

SUPPLEMENTAL OBSERVATIONS (WEST)

CITY           SKY/WX    TMP DP  RH WIND       PRES   REMARKS
MILLERS CREEK    N/A     84  66  54 E6          N/A
POSSUM KINGDOM   N/A     81  68  65 E5          N/A
LBJ GRASSLAND    N/A     81  73  78 N1          N/A
GRANBURY         N/A     82  70  65 N2          N/A
HAMBY            N/A     77  66  69 E12G23      N/A
$$

SUPPLEMENTAL OBSERVATIONS (EAST)

CITY           SKY/WX    TMP DP  RH WIND       PRES   REMARKS
CLARKSVILLE      N/A     81  73  78 E1          N/A
CADDO LAKE       N/A     79  75  89 CALM        N/A
GILMER           N/A     81  75  83 S1          N/A
HENDERSON        N/A     73  70  88 SE7         N/A
LUFKIN           N/A     73  72  94 MISG        N/A
S SABINE NF      N/A     73  72  94 CALM        N/A
$$

SUPPLEMENTAL OBSERVATIONS ARE A COLLECTION OF AUTOMATED INSTRUMENTS
THAT ARE MAINTAINED BY A VARIETY OF FEDERAL AND STATE AGENCIES.
CERTAIN ELEMENTS...SUCH AS HUMIDITY VALUES AND SUSTAINED WIND
SPEEDS...MAY BE APPROXIMATED.





USA.gov is the U.S. government's official web portal to all federal, state and local government web resources and services.